Lamar, CO

10:29 PM MDT on May 21, 2018 (GMT -0600)
Lamar Municipal

Weather History for KLAA - September, 2014

Change the Weather History Date:

Tuesday, September 2, 2014

  Actual Average Record
Temperature  
Mean Temperature 75 °F 72 °F  
Max Temperature 89 °F 87 °F 103 °F (1939)
Min Temperature 60 °F 56 °F 41 °F (1952)
Degree Days  
Heating Degree Days 0 1  
Month to date heating degree days 0 1  
Since 1 July heating degree days 0 6  
Cooling Degree Days 10 7  
Month to date cooling degree days 14 14  
Year to date cooling degree days 1173 1003  
Growing Degree Days 25 (Base 50)    
Moisture  
Dew Point 58 °F    
Average Humidity 61    
Maximum Humidity 93    
Minimum Humidity 29    
Precipitation  
Precipitation 0.00 in 0.05 in 0.75 in (1920)
Month to date precipitation 0.00 0.11  
Year to date precipitation 10.22  
Sea Level Pressure  
Sea Level Pressure 29.89 in    
Wind  
Wind Speed 10 mph (SE)    
Max Wind Speed 21 mph    
Max Gust Speed 26 mph    
Visibility 8 miles    
Events      
T = Trace of Precipitation, MM = Missing Value Source: NWS Daily Summary

Daily Weather History Graph

Daily Weather History Graph

Search for Another Location

Airport or City:

Astronomy

Sep. 02, 2014 Rise Set
Actual Time 6:21 AM MDT 7:18 PM MDT
Civil Twilight 5:54 AM MDT 7:45 PM MDT
Nautical Twilight 5:22 AM MDT 8:17 PM MDT
Astronomical Twilight 4:49 AM MDT 8:50 PM MDT
Moon 2:01 PM MDT (9/2) No Moon Set
Length of Visible Light 13h 51m
Length of Day
12h 57m
First Quarter, 53% of the Moon is Illuminated
Sep 2
First Quarter
Sep 8
Full
Sep 15
Last Quarter
Sep 24
New
Oct 1
First Quarter

Hourly Weather History & Observations

Time (MDT) Temp. Heat Index Dew Point Humidity Pressure Visibility Wind Dir Wind Speed Gust Speed Precip Events Conditions
12:53 AM 62.1 °F - 57.0 °F 84% 29.86 in 9.0 mi NE 4.6 mph - N/A   Clear
1:53 AM 64.0 °F - 59.0 °F 84% 29.85 in 8.0 mi South 4.6 mph - N/A   Clear
2:53 AM 61.0 °F - 57.9 °F 90% 29.88 in 8.0 mi Calm Calm - N/A   Partly Cloudy
3:53 AM 63.0 °F - 59.0 °F 87% 29.87 in 8.0 mi Calm Calm - N/A   Overcast
4:53 AM 61.0 °F - 57.0 °F 87% 29.88 in 7.0 mi NNE 4.6 mph - N/A   Clear
5:53 AM 63.0 °F - 60.1 °F 90% 29.91 in 7.0 mi NE 8.1 mph - N/A   Overcast
6:00 AM 63.0 °F - 60.1 °F 90% 30.06 in 7.0 mi NE 6.9 mph - N/A   Overcast
6:53 AM 64.0 °F - 61.0 °F 90% 29.95 in 5.0 mi East 11.5 mph - N/A   Overcast
7:39 AM 66.0 °F - 61.0 °F 84% 30.09 in 6.0 mi East 10.4 mph - N/A   Haze
7:53 AM 66.0 °F - 61.0 °F 84% 29.97 in 6.0 mi East 11.5 mph - N/A   Haze
8:53 AM 70.0 °F - 61.0 °F 73% 29.96 in 7.0 mi ESE 10.4 mph - N/A   Clear
9:53 AM 70.0 °F - 61.0 °F 73% 29.96 in 7.0 mi East 9.2 mph - N/A   Partly Cloudy
10:17 AM 75.0 °F - 61.0 °F 62% 30.08 in 8.0 mi Variable 5.8 mph - N/A   Mostly Cloudy
10:36 AM 75.9 °F - 60.1 °F 58% 30.07 in 8.0 mi South 9.2 mph - N/A   Partly Cloudy
10:53 AM 77.0 °F - 57.9 °F 52% 29.93 in 8.0 mi South 10.4 mph 17.3 mph N/A   Clear
11:53 AM 81.0 °F 81.0 °F 57.0 °F 44% 29.91 in 9.0 mi SSE 6.9 mph - N/A   Clear
12:53 PM 84.0 °F 83.3 °F 57.0 °F 40% 29.88 in 9.0 mi South 8.1 mph 17.3 mph N/A   Clear
1:53 PM 87.1 °F 85.3 °F 55.0 °F 33% 29.85 in 9.0 mi SSE 17.3 mph - N/A   Clear
2:53 PM 88.0 °F 85.9 °F 54.0 °F 31% 29.83 in 9.0 mi SSE 19.6 mph 26.5 mph N/A   Clear
3:53 PM 89.1 °F 86.9 °F 54.0 °F 30% 29.79 in 9.0 mi SSE 16.1 mph 24.2 mph N/A   Clear
4:53 PM 88.0 °F 85.9 °F 54.0 °F 31% 29.78 in 9.0 mi SE 19.6 mph 24.2 mph N/A   Clear
5:53 PM 86.0 °F 84.7 °F 55.9 °F 36% 29.76 in 9.0 mi SE 17.3 mph 24.2 mph N/A   Clear
6:53 PM 82.9 °F 82.1 °F 55.9 °F 39% 29.75 in 9.0 mi SSE 13.8 mph - N/A   Clear
7:53 PM 79.0 °F - 57.9 °F 48% 29.77 in 10.0 mi SE 10.4 mph - N/A   Clear
9:53 PM 75.0 °F - 61.0 °F 62% 29.78 in 9.0 mi SSE 11.5 mph - N/A   Clear
10:53 PM 73.0 °F - 62.1 °F 68% 29.77 in 9.0 mi SSE 10.4 mph - N/A   Clear
11:53 PM 66.0 °F - 61.0 °F 84% 29.77 in 9.0 mi East 8.1 mph - N/A   Clear